Tracking 29933 objects as of 2-Dec-2024
HD Live streaming from Space Station
objects crossing your sky now

STARLINK-6138

Track STARLINK-6138 now!
10-day predictions
STARLINK-6138 is classified as:


NORAD ID: 57329
Int'l Code: 2023-099B
Perigee: 565.5 km
Apogee: 567.1 km
Inclination: 43.0 °
Period: 95.8 minutes
Semi major axis: 6937 km
RCS: Unknown
Launch date: July 16, 2023
Source: United States (US)
Launch site: AIR FORCE EASTERN TEST RANGE (AFETR)
Your satellite tracking list
Your tracking list is empty




NASA's NSSDC Master Catalog

Two Line Element Set (TLE):
1 57329U 23099B   24337.46552351  .00003473  00000-0  27215-3 0  9996
2 57329  43.0042 240.7817 0001128 284.7495  75.3222 15.02519648 77322
Source of the keplerian elements: AFSPC